TimeCDT,TemperatureF,Dew PointF,Humidity,Sea Level PressureIn,VisibilityMPH,Wind Direction,Wind SpeedMPH,Gust SpeedMPH,PrecipitationIn,Events,Conditions,WindDirDegrees,DateUTC
12:15 AM,75.0,68.4,80,29.92,10.0,North,-9999.0,-,N/A,,Clear,0,2013-07-14 05:15:00
12:35 AM,74.8,69.3,83,29.91,10.0,East,4.6,-,N/A,,Clear,80,2013-07-14 05:35:00
12:55 AM,74.8,69.8,84,29.91,10.0,East,4.6,-,N/A,,Clear,80,2013-07-14 05:55:00
1:15 AM,75.2,69.4,82,29.92,10.0,East,5.8,-,N/A,,Clear,80,2013-07-14 06:15:00
1:35 AM,74.7,69.1,83,29.91,10.0,ENE,5.8,-,N/A,,Clear,70,2013-07-14 06:35:00
1:55 AM,74.3,69.3,84,29.92,10.0,North,-9999.0,-,N/A,,Clear,0,2013-07-14 06:55:00
2:15 AM,73.4,68.9,86,29.91,10.0,Calm,Calm,-,N/A,,Clear,0,2013-07-14 07:15:00
2:35 AM,73.0,69.1,87,29.91,10.0,Calm,Calm,-,N/A,,Clear,0,2013-07-14 07:35:00
2:55 AM,72.9,69.3,88,29.92,10.0,NNW,3.5,-,N/A,,Clear,340,2013-07-14 07:55:00
3:15 AM,72.3,69.1,89,29.91,10.0,South,4.6,-,N/A,,Clear,180,2013-07-14 08:15:00
3:35 AM,72.5,68.9,88,29.91,10.0,East,4.6,-,N/A,,Scattered Clouds,80,2013-07-14 08:35:00
3:55 AM,72.5,68.5,87,29.90,10.0,East,4.6,-,N/A,,Scattered Clouds,80,2013-07-14 08:55:00
4:15 AM,72.9,68.5,86,29.91,10.0,North,-9999.0,-,N/A,,Scattered Clouds,0,2013-07-14 09:15:00
4:35 AM,72.1,68.4,88,29.90,10.0,ESE,3.5,-,N/A,,Scattered Clouds,110,2013-07-14 09:35:00
4:55 AM,71.8,68.2,88,29.90,10.0,North,-9999.0,-,N/A,,Scattered Clouds,0,2013-07-14 09:55:00
5:15 AM,71.4,68.2,89,29.91,10.0,North,-9999.0,-,N/A,,Clear,0,2013-07-14 10:15:00
5:35 AM,71.8,68.0,88,29.90,10.0,North,-9999.0,-,N/A,,Clear,0,2013-07-14 10:35:00
5:55 AM,71.2,68.9,92,29.91,10.0,Calm,Calm,-,N/A,,Clear,0,2013-07-14 10:55:00
6:15 AM,70.3,68.5,94,29.92,10.0,Calm,Calm,-,N/A,,Clear,0,2013-07-14 11:15:00
6:35 AM,70.7,68.9,94,29.92,7.0,Calm,Calm,-,N/A,,Clear,0,2013-07-14 11:35:00
6:55 AM,71.2,69.4,94,29.93,7.0,North,-9999.0,-,N/A,,Clear,0,2013-07-14 11:55:00
7:15 AM,71.1,68.9,93,29.94,10.0,North,-9999.0,-,N/A,,Scattered Clouds,0,2013-07-14 12:15:00
7:35 AM,72.0,69.1,91,29.94,10.0,North,-9999.0,-,N/A,,Scattered Clouds,0,2013-07-14 12:35:00
7:55 AM,73.0,69.3,88,29.94,10.0,North,-9999.0,-,N/A,,Scattered Clouds,0,2013-07-14 12:55:00
8:15 AM,73.6,70.2,89,29.94,10.0,North,-9999.0,-,N/A,,Clear,0,2013-07-14 13:15:00
8:35 AM,75.2,70.2,84,29.94,10.0,Calm,Calm,-,N/A,,Clear,0,2013-07-14 13:35:00
8:55 AM,77.2,72.0,84,29.95,10.0,Calm,Calm,-,N/A,,Clear,0,2013-07-14 13:55:00
9:15 AM,77.9,72.0,82,29.94,10.0,Calm,Calm,-,N/A,,Clear,0,2013-07-14 14:15:00
9:35 AM,79.5,72.9,80,29.95,10.0,Calm,Calm,-,N/A,,Clear,0,2013-07-14 14:35:00
9:55 AM,80.6,73.9,80,29.95,10.0,Calm,Calm,-,N/A,,Clear,0,2013-07-14 14:55:00
10:15 AM,80.8,74.3,81,29.96,10.0,NNW,4.6,-,N/A,,Clear,340,2013-07-14 15:15:00
10:35 AM,81.5,73.9,78,29.96,10.0,North,4.6,-,N/A,,Clear,350,2013-07-14 15:35:00
10:55 AM,81.9,73.4,75,29.95,10.0,Calm,Calm,-,N/A,,Clear,0,2013-07-14 15:55:00
11:15 AM,83.3,72.9,71,29.96,10.0,Calm,Calm,-,N/A,,Clear,0,2013-07-14 16:15:00
11:35 AM,84.2,71.8,66,29.97,10.0,North,3.5,-,N/A,,Clear,360,2013-07-14 16:35:00
11:55 AM,85.1,66.4,53,29.97,10.0,Calm,Calm,-,N/A,,Clear,0,2013-07-14 16:55:00
12:15 PM,85.8,65.3,50,29.97,10.0,North,3.5,-,N/A,,Clear,360,2013-07-14 17:15:00
12:35 PM,85.3,66.4,53,29.97,10.0,NNE,5.8,-,N/A,,Clear,30,2013-07-14 17:35:00
12:55 PM,85.8,67.1,53,29.97,10.0,NE,4.6,-,N/A,,Clear,40,2013-07-14 17:55:00
1:15 PM,86.0,65.8,51,29.96,10.0,NE,4.6,-,N/A,,Clear,50,2013-07-14 18:15:00
1:35 PM,85.8,66.2,52,29.96,10.0,ENE,3.5,-,N/A,,Clear,60,2013-07-14 18:35:00
1:55 PM,85.6,66.7,53,29.96,10.0,Calm,Calm,-,N/A,,Clear,0,2013-07-14 18:55:00
2:15 PM,86.2,65.3,50,29.95,10.0,Calm,Calm,-,N/A,,Clear,0,2013-07-14 19:15:00
2:35 PM,87.6,64.6,46,29.95,10.0,Calm,Calm,-,N/A,,Clear,0,2013-07-14 19:35:00
2:55 PM,87.8,64.0,45,29.95,10.0,SSE,4.6,-,N/A,,Clear,150,2013-07-14 19:55:00
3:15 PM,87.8,64.2,45,29.94,10.0,South,3.5,-,N/A,,Scattered Clouds,170,2013-07-14 20:15:00
3:35 PM,88.0,62.1,42,29.93,10.0,Calm,Calm,-,N/A,,Scattered Clouds,0,2013-07-14 20:35:00
3:55 PM,88.7,62.1,41,29.92,10.0,South,3.5,-,N/A,,Clear,190,2013-07-14 20:55:00
4:15 PM,88.0,61.5,41,29.91,10.0,SSW,3.5,-,N/A,,Clear,200,2013-07-14 21:15:00
4:35 PM,87.8,63.5,44,29.91,10.0,Calm,Calm,-,N/A,,Clear,0,2013-07-14 21:35:00
4:55 PM,88.0,64.4,45,29.90,10.0,SSW,4.6,-,N/A,,Clear,210,2013-07-14 21:55:00
5:15 PM,87.8,63.3,44,29.90,10.0,WSW,4.6,-,N/A,,Clear,250,2013-07-14 22:15:00
5:35 PM,88.5,62.4,42,29.90,10.0,SW,3.5,-,N/A,,Clear,230,2013-07-14 22:35:00
5:55 PM,87.3,63.3,45,29.91,10.0,West,3.5,-,N/A,,Clear,270,2013-07-14 22:55:00
6:15 PM,87.1,64.2,46,29.91,10.0,Calm,Calm,-,N/A,,Clear,0,2013-07-14 23:15:00
6:35 PM,87.8,64.0,45,29.92,10.0,WNW,3.5,-,N/A,,Clear,290,2013-07-14 23:35:00
6:55 PM,87.3,63.3,45,29.92,10.0,WNW,3.5,-,N/A,,Clear,290,2013-07-14 23:55:00
7:15 PM,86.0,65.7,50,29.92,10.0,Calm,Calm,-,N/A,,Clear,0,2013-07-15 00:15:00
7:35 PM,84.4,66.9,56,29.92,10.0,North,3.5,-,N/A,,Clear,350,2013-07-15 00:35:00
7:55 PM,82.0,67.6,62,29.93,10.0,NNE,3.5,-,N/A,,Clear,30,2013-07-15 00:55:00
8:15 PM,81.7,66.9,61,29.93,10.0,Calm,Calm,-,N/A,,Clear,0,2013-07-15 01:15:00
8:35 PM,80.8,67.6,64,29.94,10.0,Calm,Calm,-,N/A,,Clear,0,2013-07-15 01:35:00
8:55 PM,79.0,69.6,73,29.94,10.0,ENE,4.6,-,N/A,,Clear,70,2013-07-15 01:55:00
9:15 PM,78.6,70.2,75,29.94,10.0,ESE,6.9,-,N/A,,Clear,120,2013-07-15 02:15:00
9:35 PM,78.6,71.4,78,29.95,10.0,ESE,5.8,-,N/A,,Clear,120,2013-07-15 02:35:00
9:55 PM,78.4,72.5,82,29.96,10.0,ESE,8.1,-,N/A,,Clear,110,2013-07-15 02:55:00
10:15 PM,78.3,73.6,85,29.96,10.0,ESE,6.9,-,N/A,,Clear,120,2013-07-15 03:15:00
10:35 PM,78.1,73.8,86,29.96,10.0,ESE,6.9,-,N/A,,Clear,120,2013-07-15 03:35:00
10:55 PM,79.3,73.6,82,29.96,10.0,ESE,9.2,-,N/A,,Clear,120,2013-07-15 03:55:00
11:15 PM,78.4,73.8,85,29.96,10.0,ESE,9.2,-,N/A,,Clear,110,2013-07-15 04:15:00
11:35 PM,77.5,73.8,88,29.96,10.0,ESE,8.1,-,N/A,,Clear,110,2013-07-15 04:35:00
11:55 PM,77.4,73.6,88,29.96,10.0,ESE,8.1,-,N/A,,Clear,120,2013-07-15 04:55:00